Home   Weather   Tallahassee   Past weeks

Flag for USA Past Weather in Tallahassee, Florida, USA — Yesterday and Last 2 Weeks

Now
57 °F

Clear.


Feels Like: 57 °F
Forecast: 59 / 84 °F
Wind: No wind

Location: Tallahassee Regional Airport

Current Time: Oct 1, 2016 at 8:09:08 AM

Latest Report: Oct 1, 2016 at 6:53 AM


Visibility: 10 mi

Pressure: 30.05 "Hg

Humidity: 87%

Dew Point: 53 °F

Location of TallahasseeLocation

Past Weather in Tallahassee — Graph

°F

Tallahassee Temperature Yesterday

Maximum temperature yesterday: 83 °F (at 2:53 PM)
Minimum temperature yesterday: 61 °F (at 7:53 AM)
Average temperature yesterday: 72 °F

High & Low Weather Summary for the Past Weeks

 TemperatureHumidityPressure
High94 °F (Sep 20, 2:53 PM)100% (Sep 19, 7:03 AM)30.10 "Hg (Sep 19, 7:03 AM)
Low57 °F (Oct 1, 4:53 AM)30% (Sep 30, 2:53 PM)29.88 "Hg (Sep 27, 4:53 PM)
Average80 °F76%29.99 "Hg
* Reported Sep 16 6:53 AM — Oct 1 6:53 AM, Tallahassee, Weather by CustomWeather, © 2016

Note: Actual official high and low records may vary slightly from our data, if they occured in-between our weather recording intervals... More about our weather records

Advertising

Tallahassee Weather History for the Previous 24 Hours

Scroll right to see more
 ConditionsComfort  
Time TempWeatherWind HumidityBarometerVisibility
6:53 AM
Sat, Oct 1
57 °FClear.No wind87%30.05 "Hg10 mi
5:53 AM57 °FClear.No wind87%30.03 "Hg10 mi
4:53 AM57 °FClear.No wind87%30.03 "Hg10 mi
3:53 AM58 °FClear.No wind87%30.03 "Hg10 mi
2:53 AM59 °FClear.N/A87%30.04 "Hg10 mi
1:53 AM59 °FClear.No wind90%30.04 "Hg10 mi
12:53 AM60 °FClear.No wind90%30.05 "Hg10 mi
11:53 PM
Fri, Sep 30
61 °FClear.No wind87%30.05 "Hg10 mi
10:53 PM64 °FClear.3 mph81%30.04 "Hg10 mi
9:53 PM64 °FClear.No wind84%30.02 "Hg10 mi
8:53 PM68 °FClear.No wind70%30.01 "Hg10 mi
7:53 PM73 °FClear.3 mph55%29.99 "Hg10 mi
6:53 PM82 °FSunny.6 mph33%29.99 "Hg10 mi
5:53 PM83 °FSunny.9 mph30%29.99 "Hg10 mi
4:53 PM83 °FSunny.7 mph31%29.99 "Hg10 mi
3:53 PM83 °FSunny.5 mph30%30.00 "Hg10 mi
2:53 PM83 °FSunny.5 mph30%30.01 "Hg10 mi
1:53 PM82 °FSunny.No wind34%30.04 "Hg10 mi
12:53 PM80 °FSunny.8 mph36%30.06 "Hg10 mi
11:53 AM78 °FSunny.6 mph39%30.07 "Hg10 mi
10:53 AM75 °FSunny.8 mph47%30.07 "Hg10 mi
9:53 AM71 °FSunny.10 mph51%30.06 "Hg10 mi
8:53 AM67 °FSunny.6 mph61%30.05 "Hg10 mi
Weather by CustomWeather, © 2016

See weather overviewHow to use our weather pages